Regional Weather Roundup
Issued by NWS Albany, NY

Home | Current Version | Previous Version | Text Only | Print | Product List | Glossary On
Versions: 1 2 3 4 5 6 7 8 9 10 11 12 13 14 15 16 17 18 19 20 21 22 23 24 25 26 27
000
ASUS41 KALY 290610
RWRALY

NEW YORK STATE HOURLY WEATHER ROUNDUP
NATIONAL WEATHER SERVICE ALBANY NY
200 AM EDT THU SEP 29 2016

NOTE: "FAIR" INDICATES FEW OR NO CLOUDS BELOW 12,000 FEET WITH NO
SIGNIFICANT WEATHER AND/OR NO OBSTRUCTIONS TO VISIBILITY.

NYZ032-033-038>043-046>054-057>066-NYZ062>081-082-084-290700-
EAST


CITY           SKY/WX    TMP DP  RH WIND       PRES   REMARKS
ALBANY         CLOUDY    50  46  86 N3        30.35S
GLENS FALLS    CLOUDY    46  43  89 CALM      30.37R FOG
POUGHKEEPSIE   CLOUDY    57  50  77 N5        30.30R
NEWBURGH       CLOUDY    57  52  82 E8        30.30S
MONTGOMERY     CLOUDY    56  51  84 NE8       30.30R
WHITE PLAINS   DRIZZLE   55  52  89 E12       30.28R
ISLIP          LGT RAIN  59  58  96 NE12      30.26R FOG
NEW YORK CITY  CLOUDY    61  57  87 NE24G32   30.25S
CENTRAL PARK   CLOUDY    57  54  89 E9G20     30.29R
$$

NYZ005>009-017-018-044>046-055-056-290700-
CENTRAL


CITY           SKY/WX    TMP DP  RH WIND       PRES   REMARKS
FULTON         MOCLDY    57  48  72 MISG      30.26R
SYRACUSE       CLOUDY    55  48  77 E14       30.26R
ROME           PTCLDY    53  46  77 E10       30.33S
ELMIRA         LGT RAIN  58  52  80 NE9       30.20F
BINGHAMTON     CLOUDY    53  50  89 E10       30.24F
MONTICELLO     CLOUDY    50  48  93 E13G18    30.30S
$$

NYZ026>034-041>043-087-290700-
NORTH


CITY           SKY/WX    TMP DP  RH WIND       PRES   REMARKS
WATERTOWN      CLEAR     50  46  86 NE8       30.31R
FORT DRUM      NOT AVBL
OGDENSBURG     FAIR      52  50  92 E3        30.37R
MASSENA        CLEAR     53  48  83 E13       30.38S
SARANAC LAKE   CLEAR     37  36  96 CALM      30.35R
PLATTSBURGH    MOCLDY    52  48  86 CALM      30.39R
$$

NYZ001>004-010>016-019>021-085-290700-
WEST


CITY           SKY/WX    TMP DP  RH WIND       PRES   REMARKS
NIAGARA FALLS  CLOUDY    62  52  69 E12       30.15S
BUFFALO        MOCLDY    61  51  70 E15       30.15F
DUNKIRK        CLEAR     60  53  77 NE12      30.10S
JAMESTOWN      PTCLDY    57  50  77 E10       30.11R
WELLSVILLE     LGT RAIN  55  53  93 E12       30.20R FOG
ROCHESTER      CLOUDY    62  51  67 E14       30.21S
PENN YAN       CLOUDY    60  50  69 CALM      30.24R
$$

             KEY
       WCI = WIND CHILL INDEX
       VSB = VISIBILITY
       HX  = HEAT INDEX
$$




USA.gov is the U.S. government's official web portal to all federal, state and local government web resources and services.